DGZAD EDNY-EDNY

Flight info

Callsign DGZAD
Flight time 0h 6m
Altitude 8000
Route
Aircraft DA42/L-SDFGRY/C

Departure

Time 2026-04-28 19:42
Airport Bodensee Airport Friedrichshafen (EDNY)

Arrival

Time 2026-04-28 19:49
Airport Bodensee Airport Friedrichshafen (EDNY)
Time Latitude Longitude Altitude Speed Heading
2026-04-28 19:42 47.64244 9.43708 2373 ft 120 kts 59°
2026-04-28 19:42 47.64662 9.44743 2313 ft 114 kts 59°
2026-04-28 19:42 47.64924 9.45394 2230 ft 113 kts 59°
2026-04-28 19:43 47.65414 9.46715 2003 ft 101 kts 60°
2026-04-28 19:43 47.65743 9.47559 1829 ft 85 kts 58°
2026-04-28 19:43 47.66023 9.48281 1679 ft 78 kts 59°
2026-04-28 19:43 47.66295 9.48987 1581 ft 80 kts 59°
2026-04-28 19:44 47.66571 9.49706 1443 ft 83 kts 59°
2026-04-28 19:44 47.66850 9.50420 1348 ft 67 kts 59°
2026-04-28 19:44 47.67040 9.50909 1348 ft 61 kts 60°
2026-04-28 19:44 47.67305 9.51580 1487 ft 79 kts 59°
2026-04-28 19:45 47.67586 9.52307 1736 ft 91 kts 57°
2026-04-28 19:45 47.67987 9.53054 1996 ft 98 kts 19°
2026-04-28 19:45 47.68626 9.52688 2269 ft 106 kts 326°
2026-04-28 19:45 47.69160 9.51836 2472 ft 120 kts 299°
2026-04-28 19:46 47.69101 9.50548 2622 ft 138 kts 252°
2026-04-28 19:46 47.68745 9.49162 2634 ft 147 kts 249°
2026-04-28 19:46 47.68366 9.47721 2644 ft 155 kts 248°
2026-04-28 19:46 47.67944 9.46232 2690 ft 155 kts 245°
2026-04-28 19:47 47.67400 9.44907 2740 ft 139 kts 212°
2026-04-28 19:47 47.66578 9.44907 2539 ft 120 kts 135°
2026-04-28 19:47 47.66000 9.45697 2372 ft 104 kts 128°
2026-04-28 19:47 47.65648 9.46519 2152 ft 93 kts 99°
2026-04-28 19:48 47.65706 9.47382 1928 ft 80 kts 65°
2026-04-28 19:48 47.65956 9.48113 1726 ft 78 kts 62°
2026-04-28 19:48 47.66223 9.48800 1598 ft 75 kts 57°
2026-04-28 19:48 47.66488 9.49492 1474 ft 78 kts 57°
2026-04-28 19:49 47.66767 9.50203 1366 ft 79 kts 59°
2026-04-28 19:49 47.66980 9.50751 1346 ft 48 kts 60°
2026-04-28 19:49 47.67202 9.51315 1388 ft 78 kts 57°
2026-04-28 19:49 47.67482 9.52057 1613 ft 90 kts 59°
2026-04-28 19:50 47.68536 9.52262 2176 ft 97 kts 337°
2026-04-28 19:50 47.69106 9.51597 2362 ft 115 kts 303°
2026-04-28 19:50 47.68963 9.50388 2531 ft 131 kts 234°
2026-04-28 19:51 47.68435 9.49198 2584 ft 146 kts 234°
2026-04-28 19:51 47.67835 9.47902 2583 ft 158 kts 233°
2026-04-28 19:51 47.67263 9.46520 2736 ft 156 kts 240°
2026-04-28 19:51 47.66769 9.45083 2811 ft 158 kts 243°
2026-04-28 19:52 47.66284 9.43597 2797 ft 163 kts 244°
2026-04-28 19:52 47.65779 9.42060 2771 ft 168 kts 242°
2026-04-28 19:52 47.65257 9.40495 2775 ft 169 kts 242°
2026-04-28 19:52 47.64727 9.38942 2751 ft 171 kts 242°
2026-04-28 19:53 47.64191 9.37376 2776 ft 170 kts 242°
2026-04-28 19:53 47.63569 9.35884 2788 ft 168 kts 219°
2026-04-28 19:53 47.62525 9.35422 2737 ft 161 kts 163°
2026-04-28 19:53 47.61808 9.36555 2668 ft 156 kts 100°
2026-04-28 19:54 47.62092 9.38070 2592 ft 157 kts 59°
2026-04-28 19:54 47.62623 9.39445 2588 ft 154 kts 60°
2026-04-28 19:54 47.63148 9.40808 2606 ft 148 kts 64°
2026-04-28 19:54 47.63632 9.42115 2595 ft 141 kts 60°
2026-04-28 19:55 47.64157 9.43359 2439 ft 145 kts 60°
2026-04-28 19:55 47.64618 9.44688 2210 ft 141 kts 62°
2026-04-28 19:55 47.65078 9.45823 2031 ft 115 kts 59°
2026-04-28 19:55 47.65429 9.46765 1900 ft 95 kts 57°
2026-04-28 19:56 47.65750 9.47555 1774 ft 82 kts 62°
2026-04-28 19:56 47.66006 9.48248 1678 ft 75 kts 57°
2026-04-28 19:56 47.66271 9.48932 1566 ft 79 kts 62°
2026-04-28 19:56 47.66547 9.49638 1454 ft 79 kts 58°
2026-04-28 19:57 47.66813 9.50325 1350 ft 70 kts 59°
2026-04-28 19:57 47.67000 9.50805 1347 ft 53 kts 61°
2026-04-28 19:57 47.67248 9.51436 1450 ft 78 kts 57°
2026-04-28 19:57 47.67544 9.52150 1741 ft 86 kts 57°
2026-04-28 19:58 47.68041 9.52556 2009 ft 92 kts 353°
2026-04-28 19:58 47.68615 9.52148 2331 ft 93 kts 338°
2026-04-28 19:58 47.69054 9.51392 2521 ft 119 kts 277°
2026-04-28 19:58 47.68746 9.50239 2809 ft 116 kts 238°
2026-04-28 19:59 47.68332 9.49191 3101 ft 120 kts 237°
2026-04-28 19:59 47.67892 9.48125 3390 ft 122 kts 227°
2026-04-28 19:59 47.67198 9.47447 3537 ft 122 kts 178°
2026-04-28 19:59 47.66339 9.47618 3586 ft 126 kts 156°
2026-04-28 20:00 47.65976 9.48611 3417 ft 134 kts 65°
2026-04-28 20:00 47.66609 9.49685 3400 ft 140 kts 57°
2026-04-28 20:00 47.67131 9.50920 3343 ft 142 kts 61°
2026-04-28 20:00 47.67878 9.51484 2919 ft 151 kts 335°
2026-04-28 20:01 47.68206 9.50135 2745 ft 141 kts 251°
2026-04-28 20:01 47.67589 9.49001 2361 ft 135 kts 223°
2026-04-28 20:01 47.66846 9.48491 1989 ft 113 kts 150°
2026-04-28 20:01 47.66567 9.49345 1683 ft 91 kts 85°
2026-04-28 20:02 47.66751 9.50161 1369 ft 82 kts 55°
2026-04-28 20:02 47.67059 9.50904 1567 ft 92 kts 53°
2026-04-28 20:02 47.67413 9.51730 1855 ft 94 kts 59°
2026-04-28 20:02 47.67705 9.52575 2186 ft 90 kts 47°
2026-04-28 20:03 47.68305 9.52478 2386 ft 103 kts 331°
2026-04-28 20:03 47.68831 9.51647 2479 ft 130 kts 297°
2026-04-28 20:03 47.68641 9.50279 2461 ft 148 kts 230°
2026-04-28 20:03 47.68102 9.48955 2466 ft 153 kts 242°
2026-04-28 20:04 47.67580 9.47554 2434 ft 157 kts 238°
2026-04-28 20:04 47.66998 9.46178 2493 ft 155 kts 234°
2026-04-28 20:04 47.66300 9.45106 2354 ft 137 kts 185°
2026-04-28 20:04 47.65637 9.45638 2309 ft 102 kts 127°
2026-04-28 20:05 47.65390 9.46204 2172 ft 97 kts 99°
2026-04-28 20:05 47.65578 9.47118 1960 ft 89 kts 62°
2026-04-28 20:05 47.65941 9.48091 1733 ft 79 kts 59°
2026-04-28 20:05 47.66126 9.48560 1637 ft 76 kts 56°
2026-04-28 20:06 47.66381 9.49220 1528 ft 74 kts 54°
2026-04-28 20:06 47.66647 9.49910 1412 ft 78 kts 54°
2026-04-28 20:06 47.66909 9.50574 1346 ft 60 kts 54°
2026-04-28 20:06 47.67061 9.50957 1348 ft 31 kts 59°
2026-04-28 20:07 47.67136 9.51157 1355 ft 16 kts 63°
2026-04-28 20:07 47.67124 9.51240 1355 ft 13 kts 137°
2026-04-28 20:07 47.67026 9.51361 1354 ft 13 kts 139°
2026-04-28 20:07 47.66963 9.51390 1355 ft 8 kts 191°
2026-04-28 20:08 47.66914 9.51316 1354 ft 12 kts 231°
2026-04-28 20:08 47.66876 9.51305 1354 ft 2 kts 53°
2026-04-28 20:08 47.66876 9.51306 1354 ft 0 kts 54°